sat.trackr.live / text

‹ back to catalog

STARLINK-3786

NORAD 52263 · 2022-041C

PAYLOAD ACTIVE UNKNOWN

§ Identity

Operator
Country
US
Launch date
2022-04-21
Launch site
AFETR
Launch vehicle
Mass (kg)
RCS (m²)

Purposes: comms

External: N2YO · Heavens-Above · Gunter

§ Orbital elements

Epoch: 2026-09-19T16:21:16.762464Z

Period
93.90 min
Inclination
53.1610°
Eccentricity
0.0001387
Mean motion
15.33549487 rev/d
Perigee alt
464.3 km
Apogee alt
466.2 km
Semi-major
6,843.4 km
B*
1.6976e-5
RAAN
311.4566°
Arg perigee
77.9947°
Mean anomaly
282.1211°
Rev number
24,373

§ Raw data

STARLINK-37861 52263U 22041C   26262.68144401  .00000186  00000+0  16976-4 0  99902 52263  53.1610 311.4566 0001387  77.9947 282.1211 15.33549487243739

JSON: /api/v1/satellites/52263 · /tle

For live sub-satellite position, see the globe view (requires WebGL).

§ Visibility from observer

Set your observer location to see the next 7 days of passes ≥ 10°. The values pass through the URL so the page stays shareable.

No JS? Fill the form by hand. The geolocation button needs JavaScript.